This demonstration page uses our WeatherBlox Daily Observations layout. Learn more.

Left ArrowRight Arrow

39.51506, -84.39828

Hourly Observations for February 26, 2016

Temp ( °F °C ) Dew Point ( °F °C ) Humidity (%) Winds ( mph kmh ) Pressure ( in mb ) Visibility ( mi km ) Precip ( " mm )
12:15 am 00:15 Cloudy 34 1.2 21 -6.1 59 59 NW 17 28 30.15 1021 10 16 0.00 0.00
12:35 am 00:35 Cloudy 34 1.2 21 -6.1 59 59 NW 20 31 30.18 1022 10 16 0.00 0.00
12:55 am 00:55 Cloudy 34 1.2 20 -6.5 57 57 NNW 13 20 30.18 1022 10 16 0.00 0.00
1:15 am 01:15 Cloudy with Light Wintry Mix 34 1.2 21 -6 59 59 NNW 8 13 30.18 1022 10 16 0.00 0.00
1:35 am 01:35 Cloudy with Light Snow 34 1.2 21 -6 59 59 NNW 13 20 30.18 1022 10 16 0.00 0.00
1:55 am 01:55 Cloudy 34 1.2 21 -6.3 58 58 NNW 13 20 30.18 1022 10 16 0.00 0.00
2:15 am 02:15 Cloudy 34 1.2 20 -6.6 56 56 NNW 10 17 30.18 1022 10 16 0.00 0.00
2:35 am 02:35 Cloudy 34 1.2 20 -6.8 56 56 NNW 7 11 30.21 1023 10 16 0.00 0.00
2:55 am 02:55 Cloudy with Light Wintry Mix 34 1.2 21 -6.2 58 58 NNW 8 13 30.21 1023 10 16 0.00 0.00
3:15 am 03:15 Cloudy 34 1.2 22 -5.8 60 60 NNW 7 11 30.21 1023 10 16 0.00 0.00
3:35 am 03:35 Cloudy 34 1.2 22 -5.7 60 60 NNW 6 9 30.21 1023 10 16 0.00 0.00
3:55 am 03:55 Cloudy 34 1.2 23 -5.2 63 63 NNW 6 9 30.21 1023 10 16 0.00 0.00
4:15 am 04:15 Cloudy with Light Wintry Mix 34 1.2 23 -5 64 64 NW 5 7 30.21 1023 10 16 0.00 0.00
4:35 am 04:35 Cloudy with Light Wintry Mix 34 1.2 23 -4.9 64 64 NW 6 9 30.21 1023 10 16 0.00 0.00
4:55 am 04:55 Cloudy 34 1.2 24 -4.7 65 65 WNW 3 6 30.21 1023 10 16 0.00 0.00
5:15 am 05:15 Cloudy with Light Rain 34 1.2 24 -4.5 66 66 NW 3 6 30.21 1023 10 16 0.00 0.00
5:35 am 05:35 Cloudy 34 1 24 -4.2 69 69 WNW 3 6 30.24 1024 10 16 0.00 0.00
5:55 am 05:55 Cloudy 34 1.2 25 -3.8 70 70 NW 3 6 30.24 1024 10 16 0.00 0.00
6:15 am 06:15 Cloudy with Light Snow 34 1.1 25 -3.8 70 70 NW 3 6 30.24 1024 10 16 0.00 0.00
6:35 am 06:35 Cloudy with Light Snow 33 0.6 25 -4 72 72 Calm 30.24 1024 10 16 0.00 0.00
6:55 am 06:55 Cloudy with Light Snow 32 0 24 -4.5 72 72 Calm 30.24 1024 10 16 0.00 0.00
7:15 am 07:15 Cloudy with Light Snow 32 0 24 -4.5 72 72 NW 3 6 30.27 1025 10 16 0.00 0.00
7:35 am 07:35 Cloudy with Light Snow 32 0 24 -4.5 72 72 NNW 3 6 30.27 1025 10 16 0.00 0.00
7:55 am 07:55 Cloudy with Light Snow 32 0 24 -4.3 73 73 Calm 30.27 1025 5 8 0.00 0.00
8:15 am 08:15 Cloudy with Light Snow 32 0 25 -3.7 76 76 Calm 30.27 1025 4 6 0.00 0.00
8:35 am 08:35 Cloudy with Light Snow 32 0 26 -3.4 78 78 Calm 30.30 1026 4 6 0.00 0.00
8:55 am 08:55 Cloudy with Light Snow 32 0 27 -3 80 80 ENE 7 11 30.30 1026 3 5 0.00 0.00
9:15 am 09:15 Cloudy with Light Snow 32 0 27 -2.8 82 82 NE 6 9 30.30 1026 4 6 0.00 0.00
9:35 am 09:35 Cloudy with Light Snow 32 0 27 -2.9 81 81 NE 7 11 30.30 1026 7 11 0.00 0.00
9:55 am 09:55 Cloudy 33 0.4 26 -3.2 77 77 NE 6 9 30.33 1027 10 16 0.00 0.00
10:15 am 10:15 Cloudy 34 1.2 27 -3 74 74 NNE 7 11 30.33 1027 10 16 0.00 0.00
10:35 am 10:35 Cloudy 34 1.2 26 -3.4 72 72 NE 7 11 30.33 1027 10 16 0.00 0.00
10:55 am 10:55 Cloudy with Drizzle 34 1.2 25 -3.7 70 70 N 6 9 30.33 1027 10 16 0.00 0.00
11:15 am 11:15 Cloudy 34 1.2 25 -3.9 69 69 N 6 9 30.33 1027 10 16 0.00 0.00
11:35 am 11:35 Cloudy 34 1.2 25 -3.9 69 69 NNE 7 11 30.33 1027 10 16 0.00 0.00
11:55 am 11:55 Cloudy 34 1.2 24 -4.4 67 67 NNW 3 6 30.33 1027 10 16 0.00 0.00
12:15 pm 12:15 Cloudy 34 1.2 24 -4.6 66 66 ENE 5 7 30.33 1027 10 16 0.00 0.00
12:35 pm 12:35 Cloudy 37 2.6 24 -4.4 60 60 NNW 6 9 30.33 1027 10 16 0.00 0.00
12:55 pm 12:55 Cloudy 37 2.6 20 -6.8 50 50 WNW 8 13 30.30 1026 10 16 0.00 0.00
1:15 pm 13:15 Cloudy 37 2.6 20 -6.4 52 52 NNW 3 6 30.30 1026 10 16 0.00 0.00
1:35 pm 13:35 Cloudy 37 2.6 17 -8.5 44 44 WNW 6 9 30.30 1026 10 16 0.00 0.00
1:55 pm 13:55 Cloudy 37 2.6 18 -7.9 46 46 NW 7 11 30.30 1026 10 16 0.00 0.00
2:15 pm 14:15 Cloudy 37 2.6 18 -7.6 47 47 WNW 6 9 30.30 1026 10 16 0.00 0.00
2:35 pm 14:35 Cloudy 37 2.6 18 -7.6 47 47 NW 7 11 30.27 1025 10 16 0.00 0.00
2:55 pm 14:55 Cloudy 37 2.6 19 -7.2 49 49 WNW 7 11 30.27 1025 10 16 0.00 0.00
3:15 pm 15:15 Cloudy 37 2.6 19 -7.1 49 49 NNW 6 9 30.27 1025 10 16 0.00 0.00
3:35 pm 15:35 Cloudy 37 2.6 19 -7.2 49 49 WNW 6 9 30.27 1025 10 16 0.00 0.00
3:55 pm 15:55 Cloudy 37 2.6 19 -7.4 48 48 W 8 13 30.27 1025 10 16 0.00 0.00
4:15 pm 16:15 Cloudy 37 2.6 19 -7.2 49 49 NNW 7 11 30.27 1025 10 16 0.00 0.00
4:35 pm 16:35 Cloudy 37 2.6 20 -6.9 50 50 WNW 3 6 30.27 1025 10 16 0.00 0.00
4:55 pm 16:55 Cloudy 37 2.6 18 -7.6 47 47 WNW 5 7 30.27 1025 10 16 0.00 0.00
5:15 pm 17:15 Cloudy 37 2.6 19 -7.3 48 48 WNW 7 11 30.27 1025 10 16 0.00 0.00
5:35 pm 17:35 Cloudy 37 2.6 20 -6.9 50 50 W 6 9 30.27 1025 10 16 0.00 0.00
5:55 pm 17:55 Cloudy 37 2.6 20 -6.9 50 50 W 5 7 30.27 1025 10 16 0.00 0.00
6:15 pm 18:15 Cloudy 37 2.6 20 -6.8 50 50 Calm 30.24 1024 10 16 0.00 0.00
6:35 pm 18:35 Cloudy 37 2.6 22 -5.6 55 55 WSW 3 6 30.24 1024 10 16 0.00 0.00
6:55 pm 18:55 Cloudy 37 2.6 21 -5.9 54 54 Calm 30.24 1024 10 16 0.00 0.00
7:15 pm 19:15 Cloudy 37 2.6 21 -6.3 52 52 Calm 30.24 1024 10 16 0.00 0.00
7:35 pm 19:35 Cloudy 37 2.6 22 -5.7 55 55 Calm 30.24 1024 10 16 0.00 0.00
7:55 pm 19:55 Cloudy 34 1.2 23 -4.9 64 64 Calm 30.24 1024 10 16 0.00 0.00
8:15 pm 20:15 Cloudy 34 1.2 25 -4 69 69 Calm 30.24 1024 10 16 0.00 0.00
8:35 pm 20:35 Cloudy 34 1.2 25 -3.7 70 70 Calm 30.24 1024 10 16 0.00 0.00
8:55 pm 20:55 Cloudy 34 1.2 26 -3.1 73 73 Calm 30.24 1024 10 16 0.00 0.00
9:15 pm 21:15 Cloudy 34 1.2 27 -3 74 74 Calm 30.24 1024 10 16 0.00 0.00
9:35 pm 21:35 Cloudy 34 1.2 27 -2.6 76 76 Calm 30.24 1024 10 16 0.00 0.00
9:55 pm 21:55 Cloudy 34 1.2 27 -2.9 74 74 Calm 30.24 1024 10 16 0.00 0.00
10:15 pm 22:15 Cloudy 34 1.2 24 -4.2 68 68 WNW 3 6 30.24 1024 10 16 0.00 0.00
10:35 pm 22:35 Cloudy 34 1.2 25 -3.8 70 70 WNW 3 6 30.24 1024 10 16 0.00 0.00
10:55 pm 22:55 Cloudy 34 1.2 24 -4.5 66 66 NW 7 11 30.24 1024 10 16 0.00 0.00
11:15 pm 23:15 Cloudy 34 1.2 24 -4.3 67 67 NNW 6 9 30.24 1024 10 16 0.00 0.00
11:35 pm 23:35 Cloudy 34 1.2 24 -4.5 66 66 NW 5 7 30.24 1024 10 16 0.00 0.00
11:55 pm 23:55 Cloudy 34 1.2 23 -4.8 65 65 NNW 3 6 30.24 1024 10 16 0.00 0.00

Powered by AerisWeather